This is the latest recevied weather packets stored in our database for station/object WV8BRW. If no packets are shown the sender has not sent any weather packets the latest 10 day(s).
| Time | Temp. | Humidity | Pressure | Rain* | Wind** | Luminosity | Snow |
|---|---|---|---|---|---|---|---|
| 1777998138 | 23.89° C | 60% | 1010 hPa | 0 mm | - | 523 W/m² | - |
| 1777997835 | 23.89° C | 60% | 1010.1 hPa | 0 mm | - | 448 W/m² | - |
| 1777997533 | 23.33° C | 54% | 1010 hPa | 0 mm | - | 462 W/m² | - |
| 1777997230 | 23.89° C | 56% | 1010.2 hPa | 0 mm | - | 439 W/m² | - |
| 1777996927 | 23.89° C | 58% | 1010.3 hPa | 0 mm | - | 374 W/m² | - |
| 1777996624 | 23.33° C | 58% | 1010.2 hPa | 0 mm | - | 434 W/m² | - |
| 1777996320 | 23.89° C | 56% | 1010.4 hPa | 0 mm | - | 393 W/m² | - |
| 1777996016 | 23.33° C | 59% | 1010.2 hPa | 0 mm | - | 387 W/m² | - |
| 1777995712 | 23.89° C | 58% | 1010.2 hPa | 0 mm | - | 452 W/m² | - |
| 1777995409 | 23.33° C | 58% | 1010.5 hPa | 0 mm | - | 517 W/m² | - |
| 1777995107 | 23.33° C | 55% | 1010.3 hPa | 0 mm | - | 474 W/m² | - |
| 1777994803 | 23.33° C | 57% | 1010.1 hPa | 0 mm | - | 500 W/m² | - |
| 1777994499 | 23.33° C | 59% | 1010.4 hPa | 0 mm | - | 503 W/m² | - |
| 1777994194 | 22.78° C | 61% | 1010.2 hPa | 0 mm | - | 433 W/m² | - |
| 1777993892 | 23.33° C | 60% | 1010.3 hPa | 0 mm | - | 426 W/m² | - |
| 1777993588 | 22.78° C | 58% | 1010.3 hPa | 0 mm | - | 441 W/m² | - |
| 1777993285 | 22.78° C | 59% | 1010.3 hPa | 0 mm | - | 457 W/m² | - |
| 1777992981 | 22.78° C | 60% | 1010.3 hPa | 0 mm | - | 412 W/m² | - |
| 1777992679 | 22.22° C | 61% | 1010.5 hPa | 0 mm | - | 390 W/m² | - |
| 1777992377 | 22.22° C | 60% | 1010.3 hPa | 0 mm | - | 271 W/m² | - |
| 1777992074 | 22.22° C | 56% | 1010.2 hPa | 0 mm | - | 290 W/m² | - |
| 1777991772 | 22.22° C | 57% | 1010.5 hPa | 0 mm | - | 383 W/m² | - |
| 1777991469 | 21.67° C | 58% | 1010.4 hPa | 0 mm | - | 265 W/m² | - |
| 1777991166 | 22.22° C | 58% | 1010.4 hPa | 0 mm | - | 310 W/m² | - |
| 1777990863 | 22.22° C | 59% | 1010.7 hPa | 0 mm | - | 276 W/m² | - |
* Rain latest hour (hover to see other rain measurements)
** Current wind speed in m/s (hover to see current wind gust speed)